Hourly Data Report for October 04, 2016

All times are specified in Local Standard Time (LST). Add 1 hour to adjust for Daylight Saving Time where and when it is observed.

PANGNIRTUNG
NUNAVUT

66°08'36.300" N
65°42'40.500" W
22.60 m
2403049
71826
WXP

Download Data

Hourly Data (October 2016)
Hourly Data Report for October 4, 2016
Temp Definition
°C
Dew Point Temp Definition
°C
Rel Hum Definition
%
Wind Dir Definition
10's deg

Wind Spd Definition
km/h
Visibility Definition
km
Stn Press Definition
kPa
Hmdx Definition


Wind Chill Definition


Weather Definition


TIME
00:00 -3.4 -6.9 77 21 4   100.17   -5 LegendNANA
01:00 -4.2 -7.6 77 11 8   100.09   -8 LegendNANA
02:00 -3.8 -7.4 76 18 3   100.08   -5 LegendNANA
03:00 -3.4 -7.2 75 12 11   99.98   -8 LegendNANA
04:00 -4.1 -7.1 79 12 4   99.91   -6 LegendNANA
05:00 -4.6 -7.4 80 21 5   99.84   -7 LegendNANA
06:00 -4.1 -7.2 79 22 2   99.77   -5 LegendNANA
07:00 -3.0 -6.2 78 22 3   99.75   -4 LegendNANA
08:00 -2.0 -6.4 72 8 11   99.62   -6 LegendNANA
09:00 -1.8 -5.3 77 8 13   99.48   -6 LegendNANA
10:00 -1.3 -5.1 75 7 11   99.40   -5 LegendNANA
11:00 -0.9 -6.3 67 10 11   99.32   -5 LegendNANA
12:00 0.0 -5.3 67 27 8   99.26   -3 LegendNANA
13:00 0.1 -4.5 71 25 12   99.27     LegendNANA
14:00 0.3 -3.2 78 25 18   99.22     LegendNANA
15:00 0.1 -2.6 82 26 18   99.20     LegendNANA
16:00 -0.2 -2.5 85 24 13   99.20   -4 LegendNANA
17:00 -0.2 -2.9 82 26 1   99.17   -1 LegendNANA
18:00 0.7 -3.7 72 11 10   99.18     LegendNANA
19:00 0.8 -3.3 74 13 12   99.19     LegendNANA
20:00 0.6 -4.1 71 35 6   99.22     LegendNANA
21:00 -0.5 -2.6 86 9 5   99.23   -2 LegendNANA
22:00 -0.3 -2.4 86 4 11   99.22   -4 LegendNANA
23:00 -0.2 -2.4 86 10 9   99.23   -3 LegendNANA

Notes on Data Quality.

Legend

  • E = Estimated
  • M = Missing
  • NA = Not Available
  • ‡ = Partner data that is not subject to review by the National Climate Archives
Date modified: